Regional Weather Roundup
Issued by NWS

Home | Current Version | Previous Version | Graphics & Text | Print | Product List | Glossary On
Versions: 1 2 3 4 5 6 7 8 9 10 11 12 13 14 15 16 17 18 19 20 21 22 23 24 25 26 27 28 29 30 31 32 33 34 35 36 37 38 39 40 41 42 43 44 45 46 47 48 49 50
000
ASUS43 KIND 020009
RWRIN

WEATHER ROUNDUP FOR INDIANA
NATIONAL WEATHER SERVICE INDIANAPOLIS IN
800 PM EDT FRI AUG 01 2014

NOTE: "FAIR" INDICATES FEW OR NO CLOUDS BELOW 12,000 FEET WITH NO
SIGNIFICANT WEATHER AND/OR OBSTRUCTIONS TO VISIBILITY.

* - STATION DOES NOT REPORT WEATHER SUCH AS PRECIPITATION OR FOG.

+ - STATION NOT QUALITY CONTROLLED BY THE NATIONAL WEATHER SERVICE.
    USE DATA WITH CAUTION...ESPECIALLY DEWPOINT AND RELATIVE
    HUMIDITY OBSERVATIONS.

INZ001>003-010>013-019-020-020100-
NORTHWEST INDIANA

CITY           SKY/WX    TMP DP  RH WIND       PRES   REMARKS
GARY /AIRPORT/ PTSUNNY   75  55  50 SW7       30.07F
KNOX *+        CLOUDY    68  62  81 S3        30.07S
LA PORTE +     PTSUNNY   68  59  71 CALM      30.09F
6HR MIN TEMP:  64; 6HR MAX TEMP:  71; 6HR PCP:  0.02;

MICHIGAN CITY+ PTSUNNY   70  57  64 CALM      30.08S
MONTICELLO +   CLOUDY    71  63  76 CALM      30.07F
RENSSELAER +   CLOUDY    70  63  78 S5        30.07F
VALPARAISO     PTSUNNY   66  61  84 SW7       30.09S
6HR MIN TEMP:  60; 6HR MAX TEMP:  80; 6HR PCP:  1.38;


$$

LMZ046-743>745-020100-
SOUTHERN LAKE MICHIGAN

STATION/POSITION TIME  TEMP WIND        PRES
                       AIR  DIR/SP/G
                 (UTC) (F)  (DEG/KT/KT) (MB)
BURNS HARBOR     2300   77  230/  6/  8   N/A
MICHIGAN CITY    0000   74  140/  4/  7   N/A

$$

INZ004-005-014>016-021>024-020100-
NORTH CENTRAL INDIANA

CITY           SKY/WX    TMP DP  RH WIND       PRES   REMARKS
ELKHART        SUNNY     72  59  64 CALM      30.09R
GOSHEN         MOCLDY    74  60  61 CALM      30.08S
6HR MIN TEMP:  66; 6HR MAX TEMP:  83; 6HR PCP:  0.06;

LOGANSPORT +   CLOUDY    70  61  73 CALM      30.09F
PERU/GRISSOM   CLOUDY    70  66  89 W5        30.09S
6HR MIN TEMP:  70; 6HR MAX TEMP:  82; 6HR PCP: TRACE;

ROCHESTER +    CLOUDY    77  57  50 SW3       30.08F
SOUTH BEND     PTSUNNY   73  56  54 CALM      30.09S
6HR MIN TEMP:  70; 6HR MAX TEMP:  76; 6HR PCP: TRACE;

WARSAW +       MOCLDY    72  61  68 CALM      30.08S

$$

INZ006>009-017-018-025>027-020100-
NORTHEAST INDIANA

CITY           SKY/WX    TMP DP  RH WIND       PRES   REMARKS
ANGOLA *+      CLEAR     75  66  73 N5        30.10R
AUBURN +       MOCLDY    77  57  50 CALM      30.09S
FORT WAYNE     MOCLDY    74  59  59 NW5       30.08S
6HR MIN TEMP:  74; 6HR MAX TEMP:  82;

HUNTINGTON +   CLOUDY    72  58  62 CALM      30.08S
6HR MIN TEMP:  72; 6HR MAX TEMP:  82;


$$

INZ028-029-035-036-043>045-051>053-020100-
WEST CENTRAL INDIANA

CITY           SKY/WX    TMP DP  RH WIND       PRES   REMARKS
GREENCASTLE +  PTSUNNY   70  57  64 N6        30.09S
LAFAYETTE      CLOUDY    69  62  78 CALM      30.08F
6HR MIN TEMP:  63; 6HR MAX TEMP:  83; 6HR PCP:  0.43;

TERRE HAUTE    CLOUDY    75  66  73 N5        30.07R
6HR MIN TEMP:  75; 6HR MAX TEMP:  82;


$$

INZ030>032-037>040-046>048-054>057-064-065-020100-
CENTRAL INDIANA

CITY           SKY/WX    TMP DP  RH WIND       PRES   REMARKS
CP ATTERBURY + PTCLDY    77  63  61 N8        30.08R
COLUMBUS       CLEAR     75  63  64 CALM      30.06S
INDIANAPOLIS   LGT RAIN  67  60  78 E8        30.09R
6HR MIN TEMP:  67; 6HR MAX TEMP:  82; 6HR PCP:  0.01;

-EAGLE CREEK   CLOUDY    67  59  75 CALM      30.09S
6HR MIN TEMP:  67; 6HR MAX TEMP:  81; 6HR PCP:  0.02;

KOKOMO *+      CLOUDY    70  63  78 W6        30.09F
MARION +       CLOUDY    73  58  59 NE6       30.09S
MT COMFORT *+  CLOUDY    70  63  78 SW9       30.10R
SHELBYVILLE    MOCLDY    73  61  65 NW12      30.07R
6HR MIN TEMP:  73; 6HR MAX TEMP:  84;

ZIONSVILLE +   LGT RAIN  66  58  75 CALM      30.10S
6HR MIN TEMP:  66; 6HR MAX TEMP:  82;


$$

INZ033-034-041-042-049-050-058-059-020100-
EAST CENTRAL INDIANA

CITY           SKY/WX    TMP DP  RH WIND       PRES   REMARKS
MUNCIE         LGT RAIN  71  58  63 SE5       30.08S
6HR MIN TEMP:  70; 6HR MAX TEMP:  82; 6HR PCP:  0.03;


$$

INZ060-061-067>069-081>083-085>088-020100-
SOUTHWEST INDIANA

CITY           SKY/WX    TMP DP  RH WIND       PRES   REMARKS
EVANSVILLE     SUNNY     84  55  36 CALM      30.04R
6HR MIN TEMP:  81; 6HR MAX TEMP:  86; 6HR PCP: TRACE;

WASHINGTON +   MOSUNNY   76  70  82 N3        30.04S
6HR MIN TEMP:  76; 6HR MAX TEMP:  83;


$$

INZ062-063-066-070>080-084-089>092-020100-
SOUTH CENTRAL AND SOUTHEAST INDIANA

CITY           SKY/WX    TMP DP  RH WIND       PRES   REMARKS
BLOOMINGTON    LGT RAIN  71  57  61 NE10G31   30.08R
6HR MIN TEMP:  68; 6HR MAX TEMP:  83; 6HR PCP: TRACE;


$$




USA.gov is the U.S. government's official web portal to all federal, state and local government web resources and services.